Wind_Speed
13 12 12 10 9 9 9 9 9 9 10 11 10 9 8 6 4 4 3 3 4 4 4 3 3 3 3 3 3 3 3 4 5 5 5 6 6 6 7 6 6 7 7
13 11 9 8 8 8 8 8 7 7 7 7 8 7 6 5 4 5 5 5 6 6 6 5 5 5 4 4 4 3 3 2 2 2 3 3 5 6 7 7 8 8 9
13 10 9 9 8 7 7 6 5 7 6 6 6 5 5 6 7 8 8 9 9 9 9 8 8 8 8 8 8 7 6 6 5 5 6 6 7 8 8 9 10 10 10
11 11 8 8 6 5 5 4 5 6 8 9 9 9 10 11 12 13 14 14 14 14 14 13 13 13 13 13 13 12 11 11 11 10 11 11 11 11 12 13 13 14 14
12 10 9 7 4 4 4 6 7 9 10 11 11 12 13 14 15 16 17 18 18 18 19 19 19 18 18 18 18 17 17 16 16 16 16 16 16 16 16 16 16 16 16
13 10 10 10 6 6 9 13 16 13 13 15 16 17 17 18 19 20 21 22 22 23 22 23 23 22 22 22 22 22 22 21 21 21 20 21 20 20 20 20 20 20 19
16 10 11 14 15 13 16 19 20 20 20 23 23 23 22 23 24 25 26 27 27 27 27 27 27 27 27 27 27 27 27 27 26 26 25 25 25 24 24 24 24 23 22
17 16 14 16 19 20 21 22 22 23 24 25 27 29 29 28 30 31 31 32 33 33 32 33 32 32 32 31 31 31 31 31 31 31 31 30 29 29 28 27 27 26 25
16 18 20 21 21 23 24 24 26 28 30 30 31 34 35 35 35 34 37 38 38 38 37 37 37 37 37 36 35 35 35 35 34 35 35 34 34 33 32 32 31 30 29
17 19 21 20 19 20 25 27 28 31 31 32 32 34 33 36 37 38 41 39 40 41 41 41 40 40 40 39 39 39 39 38 37 38 38 38 37 37 36 36 35 34 33
16 18 21 21 23 24 26 29 30 32 34 35 36 38 42 42 42 41 42 43 43 44 44 44 44 44 44 42 42 43 44 42 42 40 39 39 40 40 39 39 38 38 37
17 20 21 23 26 26 28 29 32 35 37 40 42 43 44 47 48 49 48 47 48 49 50 49 49 49 48 47 45 46 47 45 45 44 42 39 41 42 41 43 43 42 42
20 22 24 25 25 27 28 30 32 34 37 39 41 44 47 50 52 53 54 54 54 54 54 54 54 53 52 51 49 49 49 50 49 47 46 43 43 45 43 42 44 45 46
15 17 17 15 16 17 19 21 23 25 27 30 34 37 41 44 46 50 54 56 57 58 57 57 57 58 59 57 55 53 53 52 52 51 50 47 46 48 46 45 43 43 46
8 7 8 9 11 13 15 18 21 24 27 31 34 39 41 43 47 50 51 53 55 57 59 59 60 60 59 59 61 61 59 57 55 54 53 52 50 51 50 48 47 46 44
9 12 15 16 18 19 21 25 27 29 32 35 36 38 41 45 49 52 54 57 57 57 57 57 57 58 60 60 60 61 62 62 61 60 59 55 55 54 53 52 50 47 43
15 17 20 23 23 26 28 30 32 34 36 38 40 42 44 45 44 48 53 57 58 60 62 59 56 56 55 55 57 60 61 61 63 62 60 60 60 56 54 54 52 50 48
20 23 27 29 31 32 33 35 36 37 39 40 42 43 45 46 47 47 49 52 56 58 60 60 60 56 54 53 52 53 55 58 61 63 62 62 59 59 57 56 55 54 53
24 27 30 31 32 33 36 39 40 38 39 41 43 42 42 45 47 49 49 52 51 53 54 57 56 54 51 50 50 51 52 53 54 56 60 62 61 60 58 60 61 58 56
27 29 32 33 35 37 38 40 40 39 40 43 44 45 46 46 46 48 50 53 53 53 52 50 51 53 51 49 48 48 48 48 50 53 54 54 58 61 61 61 60 58 59
32 34 35 37 40 42 42 45 45 44 44 45 47 48 48 48 50 52 50 52 55 52 52 53 51 50 50 53 52 50 49 48 47 47 49 51 51 52 55 60 61 60 59
34 35 37 41 45 47 46 48 49 50 49 49 49 48 51 50 51 52 55 53 53 54 51 50 50 50 50 50 51 52 51 51 51 49 49 47 47 48 50 50 54 59 60
36 38 41 45 48 48 49 51 54 54 51 51 51 52 53 55 55 54 51 55 55 56 56 55 53 52 52 52 51 51 50 49 51 52 53 53 53 50 49 50 52 52 55
39 41 44 47 48 50 53 55 55 53 52 53 54 56 55 56 57 56 55 53 55 58 60 60 59 57 55 55 57 56 52 50 50 50 51 53 56 55 53 49 47 47 52
41 43 45 47 50 54 56 56 53 53 55 57 58 57 59 58 58 59 59 58 55 55 60 64 63 63 63 61 60 60 59 56 52 51 49 49 53 54 56 54 52 49 47
41 44 46 49 52 55 56 53 52 51 55 58 58 59 59 60 61 62 61 60 57 54 53 59 64 64 65 66 66 65 64 62 60 57 54 52 49 51 52 55 55 54 52
Wind_Direction
183 169 147 146 161 166 161 164 182 181 180 175 173 183 190 183 184 192 204 193 197 224 247 278 298 311 323 337 357 6 13 12 12 1 352 342 329 321 317 316 311 306 306
185 189 158 167 172 192 197 183 193 198 198 200 190 194 195 202 221 235 232 229 237 232 236 243 259 268 274 279 282 280 288 309 328 324 318 311 306 307 310 311 308 300 300
184 187 184 199 203 211 232 245 258 274 275 269 267 274 275 269 268 264 260 256 248 247 252 254 257 264 266 269 270 270 271 272 277 288 294 297 295 295 295 295 293 293 296
184 187 194 200 208 219 216 238 263 274 281 279 279 281 284 282 279 275 273 271 271 270 265 259 259 262 265 268 269 268 266 268 270 269 271 274 277 279 281 282 282 282 281
185 194 200 203 222 226 237 238 239 248 253 257 261 260 254 256 261 265 267 271 273 274 277 276 275 271 270 267 266 265 263 262 264 265 266 267 268 270 271 272 274 275 277
196 204 204 202 205 240 258 259 258 251 259 264 262 261 262 264 263 264 265 264 265 266 264 266 267 268 268 268 269 270 270 270 267 265 265 268 269 269 269 270 271 272 273
219 236 250 236 236 251 261 262 264 265 258 256 257 260 260 262 264 264 263 264 263 263 265 264 265 264 264 263 264 265 265 265 264 266 266 266 267 267 269 270 270 268 267
222 241 259 269 257 249 247 253 258 265 266 262 263 265 266 264 264 263 263 263 262 262 261 262 263 263 263 263 265 264 263 264 265 266 266 266 265 266 267 268 269 268 269
245 248 262 265 265 258 246 251 257 261 263 266 264 267 270 271 271 271 268 265 265 264 263 262 262 261 262 262 260 261 263 263 263 263 265 266 267 267 266 265 265 266 266
249 258 265 271 253 252 252 252 256 261 265 267 266 268 266 268 268 271 269 268 265 265 265 264 264 264 264 263 263 261 258 257 260 261 262 263 264 264 265 265 266 265 266
262 261 261 255 254 262 262 264 268 272 274 274 275 275 277 276 276 276 269 267 266 268 268 268 267 267 266 265 264 262 261 260 257 257 257 258 260 260 260 262 264 265 264
263 262 262 261 261 266 269 272 275 277 279 280 280 280 279 279 278 277 274 270 268 268 269 267 267 266 264 262 261 262 264 262 261 259 256 257 259 259 259 259 260 262 263
264 266 267 269 272 276 280 281 283 285 286 285 285 283 281 279 279 277 276 274 270 268 266 267 268 267 265 265 263 261 260 260 260 259 258 255 254 257 257 257 260 260 261
267 262 271 278 278 277 279 284 287 288 290 293 294 294 290 287 283 280 278 275 272 269 268 265 265 265 267 268 265 262 261 260 260 259 257 256 254 255 255 255 257 259 262
269 272 272 280 292 304 306 305 303 304 304 307 307 305 303 300 291 285 283 281 278 275 271 266 263 262 261 261 264 266 265 263 262 261 259 260 255 258 258 257 258 256 258
325 316 310 310 314 309 309 310 307 306 305 304 304 303 302 301 297 292 286 281 280 278 275 271 268 265 262 260 259 260 262 264 263 262 261 259 257 259 261 257 256 254 253
313 311 310 314 313 315 315 312 307 305 305 303 302 304 306 306 300 291 288 285 282 279 278 276 274 271 269 267 264 262 260 258 259 261 260 260 259 257 259 255 253 258 259
311 312 314 315 317 318 310 306 304 303 305 306 305 304 307 309 307 300 292 285 283 281 280 277 274 274 272 269 268 267 265 263 261 258 259 258 258 259 256 255 256 258 257
306 306 305 307 309 309 308 306 305 306 309 309 307 308 308 308 309 305 298 291 286 282 281 278 277 272 270 270 270 269 268 267 266 264 260 258 258 257 257 256 257 260 260
295 296 297 303 308 307 308 309 311 309 307 307 308 310 310 310 307 305 299 294 289 285 281 276 273 273 272 270 268 269 269 268 267 266 266 265 261 258 256 256 258 259 260
292 296 302 305 306 305 306 307 311 314 310 307 307 308 308 307 305 303 298 293 290 287 282 280 275 270 269 270 269 267 265 266 267 268 265 263 262 263 262 259 256 257 258
296 301 304 304 305 307 309 310 314 315 310 307 307 308 307 304 301 297 295 293 288 284 280 279 277 274 271 266 266 267 267 265 264 263 263 262 261 262 263 262 261 258 258
299 301 302 303 305 308 310 312 313 311 309 309 311 312 309 305 301 298 293 288 288 285 280 276 274 274 273 271 268 266 265 266 265 264 262 263 264 263 264 265 261 260 259
297 300 301 303 306 308 311 311 311 310 310 311 312 312 308 304 301 298 294 290 282 281 279 276 274 272 271 272 271 271 267 265 265 263 264 263 261 262 262 263 264 263 262
297 298 301 306 309 310 310 311 312 310 310 311 312 310 307 304 301 300 296 292 287 279 272 274 272 272 270 270 269 267 268 265 264 266 264 264 264 261 261 261 262 262 264
296 301 306 306 306 308 309 310 312 311 311 311 310 307 307 305 305 303 299 293 288 281 274 270 270 271 270 270 270 269 267 267 266 265 264 263 264 263 260 259 260 262 263
Height
5914 5914 5915 5917 5918 5918 5918 5919 5920 5920 5920 5918 5918 5919 5919 5918 5918 5918 5917 5917 5917 5918 5918 5918 5918 5917 5917 5917 5917 5917 5916 5916 5916 5916 5915 5915 5915 5914 5913 5912 5912 5911 5910
5914 5915 5916 5917 5917 5918 5918 5918 5919 5920 5920 5919 5917 5917 5916 5916 5917 5917 5917 5917 5917 5917 5916 5916 5916 5916 5915 5915 5915 5915 5914 5914 5914 5914 5913 5913 5913 5913 5912 5911 5911 5910 5909
5915 5915 5915 5916 5917 5918 5919 5919 5919 5920 5919 5919 5919 5918 5917 5916 5916 5916 5916 5916 5916 5916 5916 5915 5915 5914 5914 5913 5913 5912 5912 5912 5912 5912 5911 5911 5911 5910 5910 5909 5908 5908 5907
5914 5915 5914 5916 5916 5917 5917 5917 5917 5918 5918 5917 5916 5916 5916 5916 5916 5916 5916 5916 5915 5914 5913 5913 5912 5912 5912 5911 5911 5910 5910 5910 5910 5909 5909 5908 5908 5907 5907 5906 5906 5905 5904
5913 5914 5914 5915 5915 5915 5915 5915 5915 5915 5915 5915 5914 5913 5913 5913 5913 5913 5913 5913 5912 5912 5911 5911 5910 5910 5909 5908 5907 5907 5906 5906 5905 5905 5905 5905 5905 5904 5904 5903 5902 5902 5901
5911 5910 5911 5911 5911 5912 5912 5913 5912 5912 5913 5913 5913 5912 5911 5910 5910 5910 5909 5908 5907 5907 5906 5905 5905 5905 5905 5905 5904 5904 5904 5903 5902 5901 5900 5900 5900 5901 5900 5899 5898 5898 5897
5909 5909 5908 5909 5908 5909 5909 5909 5909 5908 5909 5909 5908 5908 5907 5907 5906 5905 5904 5903 5902 5901 5900 5900 5899 5899 5899 5899 5899 5899 5899 5898 5897 5897 5896 5895 5894 5895 5894 5894 5894 5893 5892
5908 5908 5908 5907 5907 5906 5905 5906 5905 5905 5905 5905 5904 5903 5902 5901 5900 5899 5897 5897 5896 5895 5893 5893 5892 5892 5891 5892 5892 5892 5892 5892 5892 5892 5891 5891 5890 5890 5889 5889 5888 5888 5888
5906 5906 5904 5903 5903 5902 5902 5902 5902 5901 5900 5899 5899 5898 5896 5895 5893 5892 5891 5890 5889 5888 5887 5885 5885 5884 5884 5884 5884 5884 5884 5885 5885 5885 5885 5885 5885 5884 5884 5883 5883 5882 5882
5903 5902 5900 5900 5899 5899 5898 5896 5896 5895 5894 5893 5892 5892 5890 5889 5888 5886 5884 5882 5881 5880 5879 5878 5877 5876 5876 5875 5876 5875 5874 5875 5877 5876 5878 5878 5879 5878 5878 5877 5877 5877 5876
5899 5898 5897 5896 5895 5894 5893 5892 5891 5890 5890 5889 5887 5886 5884 5881 5880 5879 5878 5876 5874 5873 5872 5871 5869 5869 5868 5868 5867 5866 5865 5867 5866 5866 5867 5869 5869 5870 5871 5871 5870 5870 5870
5896 5894 5893 5892 5891 5891 5890 5889 5888 5886 5885 5884 5882 5880 5878 5875 5872 5870 5869 5868 5866 5864 5863 5860 5860 5859 5857 5858 5857 5856 5856 5857 5857 5857 5858 5859 5859 5859 5862 5863 5863 5862 5862
5891 5890 5889 5888 5888 5887 5885 5884 5882 5880 5878 5876 5874 5872 5869 5866 5864 5861 5858 5856 5855 5852 5852 5850 5849 5848 5847 5847 5847 5846 5845 5845 5846 5846 5848 5849 5849 5848 5851 5853 5854 5855 5854
5887 5886 5885 5884 5883 5882 5880 5878 5877 5875 5873 5870 5866 5863 5859 5856 5853 5850 5847 5844 5842 5840 5840 5838 5837 5836 5836 5835 5835 5835 5835 5834 5835 5836 5837 5838 5839 5837 5839 5841 5844 5845 5846
5884 5884 5882 5881 5879 5877 5876 5874 5872 5869 5865 5861 5857 5854 5849 5846 5842 5838 5834 5831 5828 5827 5825 5825 5824 5822 5823 5822 5822 5822 5823 5822 5823 5825 5825 5826 5829 5828 5828 5830 5832 5834 5836
5880 5878 5877 5876 5875 5873 5871 5867 5864 5861 5858 5854 5850 5846 5842 5836 5831 5826 5822 5819 5816 5814 5811 5810 5809 5809 5809 5808 5808 5808 5809 5809 5810 5811 5813 5814 5816 5816 5817 5819 5821 5822 5824
5876 5875 5873 5871 5870 5868 5865 5861 5858 5854 5850 5846 5841 5837 5832 5827 5822 5817 5811 5807 5803 5800 5799 5797 5795 5794 5794 5794 5794 5794 5795 5796 5796 5797 5799 5801 5802 5805 5804 5807 5809 5812 5814
5871 5869 5866 5864 5862 5860 5858 5855 5851 5847 5841 5837 5832 5828 5823 5817 5811 5805 5800 5795 5790 5787 5784 5783 5782 5781 5780 5780 5780 5780 5780 5780 5782 5783 5785 5786 5789 5791 5794 5795 5797 5799 5802
5866 5863 5861 5859 5858 5855 5852 5847 5843 5838 5832 5827 5822 5818 5813 5808 5801 5794 5788 5783 5778 5775 5772 5770 5769 5767 5767 5767 5766 5767 5767 5768 5768 5769 5770 5773 5776 5777 5780 5783 5784 5786 5789
5861 5858 5855 5853 5851 5847 5843 5838 5834 5829 5823 5817 5811 5805 5799 5795 5790 5784 5777 5771 5766 5761 5759 5757 5756 5754 5754 5753 5753 5753 5754 5755 5755 5756 5757 5759 5760 5763 5766 5768 5771 5775 5776
5854 5851 5847 5844 5841 5837 5833 5828 5823 5818 5812 5806 5800 5794 5788 5782 5776 5771 5766 5760 5754 5750 5746 5743 5741 5741 5741 5739 5740 5741 5741 5742 5743 5744 5743 5745 5747 5749 5751 5753 5757 5761 5764
5847 5844 5840 5835 5830 5826 5821 5816 5811 5806 5800 5795 5790 5784 5778 5771 5764 5758 5751 5746 5741 5737 5735 5731 5728 5727 5727 5727 5727 5726 5729 5731 5730 5732 5732 5733 5735 5736 5737 5739 5742 5746 5749
5840 5836 5831 5826 5821 5816 5810 5805 5799 5794 5788 5782 5776 5771 5764 5757 5752 5745 5738 5732 5727 5723 5720 5718 5716 5714 5713 5714 5714 5714 5716 5718 5717 5718 5720 5721 5723 5725 5726 5726 5729 5732 5734
5832 5827 5822 5818 5812 5807 5801 5794 5789 5782 5776 5771 5765 5759 5751 5744 5738 5732 5725 5719 5713 5708 5703 5701 5700 5700 5700 5699 5699 5699 5702 5704 5704 5707 5708 5708 5710 5711 5714 5715 5715 5719 5720
5824 5820 5815 5809 5803 5797 5791 5785 5778 5771 5764 5758 5751 5744 5736 5729 5723 5716 5708 5701 5696 5691 5688 5683 5682 5682 5683 5684 5684 5685 5686 5688 5691 5692 5696 5697 5697 5698 5701 5703 5704 5707 5709
5816 5811 5806 5800 5794 5788 5781 5774 5767 5760 5754 5747 5739 5731 5723 5714 5706 5697 5689 5682 5677 5673 5670 5667 5665 5663 5664 5664 5665 5668 5670 5671 5674 5678 5681 5684 5685 5686 5689 5689 5692 5694 5697